Location: Brachbach
(49.1847°N, 9.7240°E)
Time: 06:51:31
(UTC+00:00)

PCSat - Pass Details

Date: 11 March 2026
Orbit: 780 x 790 km, 67.1° (Epoch: 13 April)

Event Time Altitude Azimuth Distance (km) Brightness Sun altitude
Exits shadow 02:38:24 11° 331° (NNW) 2,318 12.0 -29.7°
Maximum altitude 02:40:11 12° 351° (N) 2,209 12.1 -29.5°
Drops below altitude 10° 02:42:20 10° 14° (NNE) 2,365 12.6 -29.2°
Sets 02:46:28 0° 44° (NE) 3,295 13.9 -28.6°
